• In Denmark
  • List of Countries
  • For 7 days
  • Water Temperature
  • Satellite Maps
  • Weather Map
  • Weather Widgets
  • user-avatar
    Login

    Hourly Weather Al-Jahra

    Today, 11 December, Monday

    Time Temperature Precipitation Wind Pressure Humidity
    00:00 +12°C° 0 mm 4 mps 762 mmHg 23%
    01:00 +11°C° 0 mm 4 mps 762 mmHg 24%
    02:00 +11°C° 0 mm 4 mps 762 mmHg 24%
    03:00 +11°C° 0 mm 4 mps 762 mmHg 25%
    04:00 +11°C° 0 mm 4 mps 762 mmHg 25%
    05:00 +11°C° 0 mm 4 mps 762 mmHg 25%
    06:00 +10°C° 0 mm 4 mps 762 mmHg 25%
    07:00 +12°C° 0 mm 4 mps 762 mmHg 23%
    08:00 +13°C° 0 mm 4 mps 762 mmHg 21%
    09:00 +14°C° 0 mm 5 mps 763 mmHg 19%
    10:00 +15°C° 0 mm 5 mps 762 mmHg 17%
    11:00 +17°C° 0 mm 5 mps 762 mmHg 14%
    12:00 +20°C° 0 mm 5 mps 762 mmHg 12%
    13:00 +20°C° 0 mm 5 mps 761 mmHg 11%
    14:00 +21°C° 0 mm 5 mps 761 mmHg 10%
    15:00 +21°C° 0 mm 5 mps 761 mmHg 9%
    16:00 +20°C° 0 mm 5 mps 761 mmHg 11%
    17:00 +19°C° 0 mm 4 mps 761 mmHg 12%
    18:00 +17°C° 0 mm 4 mps 761 mmHg 13%
    19:00 +17°C° 0 mm 4 mps 761 mmHg 13%
    20:00 +15°C° 0 mm 4 mps 761 mmHg 14%
    21:00 +15°C° 0 mm 4 mps 761 mmHg 14%
    22:00 +15°C° 0 mm 5 mps 761 mmHg 15%
    23:00 +14°C° 0 mm 5 mps 761 mmHg 15%

    Tomorrow, 12 December, Tuesday

    Time Temperature Precipitation Wind Pressure Humidity
    00:00 +14°C° 0 mm 5 mps 761 mmHg 16%
    01:00 +13°C° 0 mm 5 mps 761 mmHg 17%
    02:00 +13°C° 0 mm 5 mps 761 mmHg 19%
    03:00 +13°C° 0 mm 6 mps 760 mmHg 20%
    04:00 +11°C° 0 mm 6 mps 761 mmHg 22%
    05:00 +11°C° 0 mm 6 mps 761 mmHg 24%
    06:00 +10°C° 0 mm 6 mps 761 mmHg 26%
    07:00 +11°C° 0 mm 7 mps 761 mmHg 25%
    08:00 +14°C° 0 mm 7 mps 761 mmHg 23%
    09:00 +15°C° 0 mm 8 mps 761 mmHg 22%
    10:00 +16°C° 0 mm 8 mps 761 mmHg 20%
    11:00 +18°C° 0 mm 8 mps 760 mmHg 18%
    12:00 +20°C° 0 mm 8 mps 760 mmHg 16%
    13:00 +21°C° 0 mm 8 mps 760 mmHg 16%
    14:00 +21°C° 0 mm 8 mps 759 mmHg 16%
    15:00 +21°C° 0 mm 8 mps 759 mmHg 16%
    16:00 +20°C° 0 mm 7 mps 759 mmHg 18%
    17:00 +19°C° 0 mm 6 mps 759 mmHg 20%
    18:00 +17°C° 0 mm 5 mps 759 mmHg 21%
    19:00 +16°C° 0 mm 5 mps 759 mmHg 22%
    20:00 +16°C° 0 mm 5 mps 760 mmHg 23%
    21:00 +15°C° 0 mm 5 mps 760 mmHg 23%
    22:00 +14°C° 0 mm 5 mps 760 mmHg 25%
    23:00 +14°C° 0 mm 5 mps 760 mmHg 26%

    Day after tomorrow, 13 December, Wednesday

    Time Temperature Precipitation Wind Pressure Humidity
    00:00 +14°C° 0 mm 5 mps 760 mmHg 27%
    01:00 +13°C° 0 mm 5 mps 759 mmHg 28%
    02:00 +13°C° 0 mm 5 mps 759 mmHg 29%
    03:00 +12°C° 0 mm 5 mps 759 mmHg 30%
    04:00 +12°C° 0 mm 4 mps 759 mmHg 31%
    05:00 +12°C° 0 mm 4 mps 759 mmHg 32%
    06:00 +12°C° 0 mm 4 mps 759 mmHg 32%
    07:00 +13°C° 0 mm 4 mps 759 mmHg 30%
    08:00 +14°C° 0 mm 4 mps 760 mmHg 28%
    09:00 +15°C° 0 mm 4 mps 760 mmHg 26%
    10:00 +17°C° 0 mm 3 mps 759 mmHg 23%
    11:00 +19°C° 0 mm 3 mps 759 mmHg 21%
    12:00 +20°C° 0 mm 3 mps 758 mmHg 18%
    13:00 +21°C° 0 mm 2 mps 758 mmHg 17%
    14:00 +21°C° 0 mm 2 mps 758 mmHg 16%
    15:00 +23°C° 0 mm 1 mps 757 mmHg 15%
    16:00 +21°C° 0 mm 1 mps 757 mmHg 17%
    17:00 +20°C° 0 mm 1 mps 757 mmHg 19%
    18:00 +19°C° 0 mm 1 mps 757 mmHg 21%
    19:00 +19°C° 0 mm 1 mps 757 mmHg 22%
    20:00 +17°C° 0 mm 2 mps 757 mmHg 23%
    21:00 +17°C° 0 mm 2 mps 757 mmHg 24%
    22:00 +17°C° 0 mm 2 mps 757 mmHg 25%
    23:00 +16°C° 0 mm 3 mps 757 mmHg 25%

    14 December, Thursday

    Time Temperature Precipitation Wind Pressure Humidity
    00:00 +16°C° 0 mm 3 mps 756 mmHg 26%
    01:00 +16°C° 0 mm 3 mps 756 mmHg 26%
    02:00 +15°C° 0 mm 2 mps 756 mmHg 26%
    03:00 +15°C° 0 mm 2 mps 756 mmHg 26%
    04:00 +15°C° 0 mm 2 mps 756 mmHg 26%
    05:00 +14°C° 0 mm 2 mps 756 mmHg 26%
    06:00 +14°C° 0 mm 2 mps 756 mmHg 26%
    07:00 +15°C° 0 mm 2 mps 757 mmHg 23%
    08:00 +17°C° 0 mm 2 mps 757 mmHg 21%
    09:00 +18°C° 0 mm 2 mps 757 mmHg 18%
    10:00 +19°C° 0 mm 3 mps 757 mmHg 17%
    11:00 +21°C° 0 mm 3 mps 757 mmHg 16%
    12:00 +22°C° 0 mm 4 mps 756 mmHg 15%
    13:00 +22°C° 0 mm 4 mps 756 mmHg 15%
    14:00 +23°C° 0 mm 4 mps 755 mmHg 14%
    15:00 +23°C° 0 mm 4 mps 755 mmHg 14%
    16:00 +22°C° 0 mm 3 mps 755 mmHg 17%
    17:00 +20°C° 0 mm 3 mps 755 mmHg 20%
    18:00 +19°C° 0 mm 3 mps 755 mmHg 23%
    19:00 +18°C° 0 mm 2 mps 755 mmHg 26%
    20:00 +18°C° 0 mm 2 mps 756 mmHg 29%
    21:00 +18°C° 0 mm 1 mps 756 mmHg 32%
    22:00 +16°C° 0 mm 1 mps 756 mmHg 34%
    23:00 +15°C° 0 mm 1 mps 755 mmHg 36%

    15 December, Friday

    Time Temperature Precipitation Wind Pressure Humidity
    00:00 +14°C° 0 mm 0 mps 755 mmHg 38%
    01:00 +15°C° 0 mm 1 mps 755 mmHg 38%
    02:00 +15°C° 0 mm 2 mps 755 mmHg 38%
    03:00 +16°C° 0 mm 3 mps 755 mmHg 38%
    04:00 +14°C° 0 mm 3 mps 755 mmHg 41%
    05:00 +14°C° 0 mm 3 mps 755 mmHg 44%
    06:00 +14°C° 0 mm 4 mps 756 mmHg 47%
    07:00 +15°C° 0 mm 4 mps 756 mmHg 44%
    08:00 +17°C° 0 mm 4 mps 757 mmHg 40%
    09:00 +18°C° 0 mm 4 mps 757 mmHg 37%
    10:00 +19°C° 0 mm 4 mps 757 mmHg 36%
    11:00 +20°C° 0 mm 4 mps 757 mmHg 35%
    12:00 +21°C° 0 mm 4 mps 756 mmHg 35%
    13:00 +22°C° 0 mm 3 mps 756 mmHg 35%
    14:00 +22°C° 0 mm 3 mps 756 mmHg 35%
    15:00 +22°C° 0 mm 3 mps 755 mmHg 35%
    16:00 +21°C° 0 mm 3 mps 756 mmHg 37%
    17:00 +20°C° 0 mm 3 mps 756 mmHg 39%
    18:00 +20°C° 0 mm 3 mps 757 mmHg 42%
    19:00 +19°C° 0 mm 3 mps 757 mmHg 43%
    20:00 +19°C° 0 mm 3 mps 757 mmHg 44%
    21:00 +18°C° 0 mm 3 mps 757 mmHg 45%
    22:00 +18°C° 0 mm 3 mps 757 mmHg 46%
    23:00 +17°C° 0 mm 3 mps 757 mmHg 48%

    16 December, Saturday

    Time Temperature Precipitation Wind Pressure Humidity
    00:00 +17°C° 0 mm 3 mps 757 mmHg 49%
    01:00 +16°C° 0 mm 3 mps 757 mmHg 48%
    02:00 +15°C° 0 mm 4 mps 757 mmHg 47%
    03:00 +15°C° 0 mm 4 mps 757 mmHg 46%
    04:00 +14°C° 0.1 mm 4 mps 757 mmHg 44%
    05:00 +14°C° 0.1 mm 4 mps 758 mmHg 43%
    06:00 +14°C° 0.1 mm 4 mps 758 mmHg 41%
    07:00 +15°C° 0.1 mm 4 mps 758 mmHg 40%
    08:00 +17°C° 0.1 mm 4 mps 759 mmHg 38%
    09:00 +18°C° 0.1 mm 3 mps 759 mmHg 36%
    10:00 +19°C° 0 mm 3 mps 759 mmHg 37%
    11:00 +20°C° 0 mm 3 mps 758 mmHg 39%
    12:00 +21°C° 0 mm 2 mps 758 mmHg 40%
    13:00 +23°C° 0 mm 2 mps 758 mmHg 39%
    14:00 +23°C° 0 mm 2 mps 758 mmHg 38%
    15:00 +23°C° 0 mm 2 mps 757 mmHg 37%
    16:00 +21°C° 0 mm 2 mps 758 mmHg 40%
    17:00 +21°C° 0 mm 2 mps 758 mmHg 42%
    18:00 +21°C° 0 mm 1 mps 758 mmHg 45%
    19:00 +19°C° 0 mm 2 mps 758 mmHg 46%
    20:00 +19°C° 0 mm 2 mps 759 mmHg 48%
    21:00 +18°C° 0 mm 2 mps 759 mmHg 49%
    22:00 +18°C° 0 mm 2 mps 759 mmHg 50%
    23:00 +18°C° 0 mm 3 mps 759 mmHg 51%
    Show more